CDT,Max TemperatureF,Mean TemperatureF,Min TemperatureF,Max Dew PointF,MeanDew PointF,Min DewpointF,Max Humidity, Mean Humidity, Min Humidity, Max Sea Level PressureIn, Mean Sea Level PressureIn, Min Sea Level PressureIn, Max VisibilityMiles, Mean VisibilityMiles, Min VisibilityMiles, Max Wind SpeedMPH, Mean Wind SpeedMPH, Max Gust SpeedMPH,PrecipitationIn, CloudCover, Events, WindDirDegrees
2013-3-1,50,43,34,30,28,25,70,55,41,30.10,30.06,30.01,10,10,10,13,9,21,0.00,2,,317
2013-3-2,39,36,33,28,25,23,75,63,51,30.14,30.10,30.06,10,10,10,14,8,20,0.00,7,,296
2013-3-3,48,40,30,27,22,16,85,58,29,30.18,30.14,30.09,10,10,10,15,8,20,0.00,4,,312
2013-3-4,64,47,30,46,32,22,88,59,25,30.18,30.10,30.02,10,10,9,14,4,21,0.00,1,,163
2013-3-5,73,56,37,57,49,36,93,76,53,30.10,29.98,29.83,10,9,2,20,7,45,0.15,6,Rain-Thunderstorm,254
2013-3-6,51,44,37,35,26,23,76,52,38,30.25,30.19,30.09,10,10,10,18,11,29,0.00,0,,317
2013-3-7,62,48,33,33,28,22,78,52,24,30.31,30.25,30.22,10,10,10,8,5,,0.00,0,,334
2013-3-8,70,51,32,35,27,13,88,47,11,30.31,30.24,30.18,10,9,3,8,4,,0.00,1,,11
2013-3-9,73,58,42,40,37,33,79,48,25,30.24,30.17,30.09,10,10,6,10,3,18,0.00,0,,140
2013-3-10,75,64,53,51,47,37,75,57,36,30.10,30.04,29.94,10,10,10,18,8,29,0.00,0,,153
2013-3-11,62,54,45,57,51,40,100,90,69,29.94,29.88,29.83,10,7,1,14,8,25,0.92,7,Rain,301
2013-3-12,61,49,37,39,32,28,89,57,30,30.17,30.06,29.94,10,10,10,15,9,22,0.00,0,,320
2013-3-13,60,48,36,36,27,18,89,47,20,30.32,30.25,30.17,10,10,10,21,6,25,0.00,0,Rain,312
2013-3-14,61,48,35,35,23,15,79,44,17,30.42,30.33,30.27,10,10,10,13,8,17,0.00,0,,338
2013-3-15,75,56,36,41,36,32,86,52,25,30.28,30.18,30.08,10,10,10,13,4,21,0.00,0,,223
2013-3-16,77,62,48,50,45,40,86,57,29,30.09,30.03,29.94,10,10,10,16,8,22,0.00,0,,216
2013-3-17,71,60,50,61,55,48,100,86,57,30.03,29.97,29.91,10,7,0,9,3,,0.00,3,Fog,166
2013-3-18,82,70,59,63,58,52,96,76,49,29.94,29.88,29.76,10,10,6,20,8,28,0.27,6,Rain-Thunderstorm,185
2013-3-19,72,62,51,57,44,28,94,62,20,30.06,29.99,29.88,10,10,10,14,8,24,0.11,2,Rain-Thunderstorm,353
2013-3-20,62,54,45,33,26,20,63,36,22,30.14,30.04,29.98,10,10,10,14,7,16,0.00,0,,360
2013-3-21,60,48,36,32,24,15,82,42,19,30.05,29.98,29.92,10,10,10,12,5,21,0.00,1,,328
2013-3-22,50,47,44,43,34,22,90,64,37,30.03,29.96,29.92,10,10,3,12,6,,0.15,7,Rain,81
2013-3-23,60,55,50,56,51,43,100,83,69,29.91,29.79,29.63,10,8,2,15,6,18,0.62,8,Rain-Thunderstorm,93
2013-3-24,73,59,45,57,51,29,100,79,47,29.88,29.63,29.52,10,8,0,22,8,34,0.07,6,Fog-Rain,301
2013-3-25,54,45,36,30,22,14,60,43,22,30.19,30.02,29.88,10,10,10,24,11,32,0.00,1,,297
2013-3-26,48,39,30,26,23,21,76,52,33,30.35,30.26,30.18,10,10,10,17,7,29,0.00,1,,313
2013-3-27,59,43,27,33,26,21,89,55,23,30.42,30.34,30.28,10,10,10,10,4,16,0.00,0,,330
2013-3-28,69,51,33,37,30,24,89,53,20,30.36,30.30,30.23,10,10,10,9,2,,0.00,0,,12
2013-3-29,73,54,36,46,35,32,89,51,21,30.32,30.24,30.17,10,10,10,13,3,21,0.00,2,,200
2013-3-30,75,62,48,55,49,46,93,65,38,30.19,30.12,30.03,10,9,2,16,4,22,0.00,3,,196
2013-3-31,77,67,57,63,58,54,97,81,46,30.04,29.94,29.87,10,8,1,15,5,31,0.56,5,Rain-Thunderstorm,221